TimeHST,TemperatureF,Dew PointF,Humidity,Sea Level PressureIn,VisibilityMPH,Wind Direction,Wind SpeedMPH,Gust SpeedMPH,PrecipitationIn,Events,Conditions,WindDirDegrees,DateUTC
12:06 AM,73.4,71.6,94,29.97,10.0,Calm,Calm,-,N/A,,Overcast,0,2012-10-26 10:06:00
12:12 AM,73.4,71.6,94,29.97,10.0,Calm,Calm,-,N/A,,Mostly Cloudy,0,2012-10-26 10:12:00
12:15 AM,73.4,71.6,94,29.97,10.0,Calm,Calm,-,N/A,,Mostly Cloudy,0,2012-10-26 10:15:00
12:24 AM,73.4,71.6,94,29.96,10.0,East,3.5,-,N/A,,Scattered Clouds,100,2012-10-26 10:24:00
12:55 AM,71.8,70.0,94,29.96,9.0,Calm,Calm,-,N/A,,Clear,0,2012-10-26 10:55:00
1:14 AM,69.8,69.8,100,29.96,4.0,Calm,Calm,-,N/A,,Partly Cloudy,0,2012-10-26 11:14:00
1:55 AM,69.4,68.0,95,29.95,4.0,NW,3.5,-,N/A,,Partly Cloudy,310,2012-10-26 11:55:00
2:25 AM,69.8,68.0,94,29.94,5.0,West,3.5,-,N/A,,Mostly Cloudy,280,2012-10-26 12:25:00
2:34 AM,68.0,68.0,100,29.94,2.5,WNW,4.6,-,N/A,,Mostly Cloudy,290,2012-10-26 12:34:00
2:36 AM,68.0,68.0,100,29.94,1.8,WNW,4.6,-,N/A,,Mostly Cloudy,290,2012-10-26 12:36:00
2:38 AM,68.0,68.0,100,29.93,1.2,WNW,4.6,-,N/A,,Mostly Cloudy,290,2012-10-26 12:38:00
2:40 AM,68.0,68.0,100,29.93,1.0,WNW,4.6,-,N/A,,Mist,290,2012-10-26 12:40:00
2:42 AM,68.0,68.0,100,29.93,0.8,WNW,4.6,-,N/A,,Mist,290,2012-10-26 12:42:00
2:52 AM,69.8,68.0,94,29.93,1.0,WNW,4.6,-,N/A,,Mist,290,2012-10-26 12:52:00
2:54 AM,69.8,68.0,94,29.93,1.2,WNW,4.6,-,N/A,,Mostly Cloudy,290,2012-10-26 12:54:00
2:55 AM,69.1,68.0,96,29.93,1.8,WNW,3.5,-,N/A,,Mostly Cloudy,290,2012-10-26 12:55:00
2:56 AM,69.8,68.0,94,29.93,2.5,WNW,3.5,-,N/A,,Mostly Cloudy,300,2012-10-26 12:56:00
2:57 AM,69.8,68.0,94,29.93,3.0,WNW,4.6,-,N/A,,Scattered Clouds,300,2012-10-26 12:57:00
3:19 AM,68.0,68.0,100,29.93,2.5,NW,3.5,-,N/A,,Clear,310,2012-10-26 13:19:00
3:21 AM,68.0,68.0,100,29.93,1.8,NW,3.5,-,N/A,,Clear,320,2012-10-26 13:21:00
3:26 AM,68.0,68.0,100,29.93,2.0,NW,4.6,-,N/A,,Clear,320,2012-10-26 13:26:00
3:29 AM,69.8,68.0,94,29.94,3.0,Calm,Calm,-,N/A,,Clear,0,2012-10-26 13:29:00
3:55 AM,68.9,67.6,96,29.94,6.0,Calm,Calm,-,N/A,,Clear,0,2012-10-26 13:55:00
4:27 AM,68.0,66.2,94,29.95,5.0,Calm,Calm,-,N/A,,Partly Cloudy,0,2012-10-26 14:27:00
4:29 AM,68.0,66.2,94,29.95,5.0,NW,3.5,-,N/A,,Partly Cloudy,310,2012-10-26 14:29:00
4:38 AM,68.0,66.2,94,29.95,7.0,WNW,3.5,-,N/A,,Mostly Cloudy,300,2012-10-26 14:38:00
4:42 AM,68.0,68.0,100,29.95,8.0,NNW,3.5,-,N/A,,Mostly Cloudy,330,2012-10-26 14:42:00
4:52 AM,68.0,68.0,100,29.96,10.0,Calm,Calm,-,N/A,,Overcast,0,2012-10-26 14:52:00
4:55 AM,68.9,68.0,97,29.96,10.0,Calm,Calm,-,N/A,,Overcast,0,2012-10-26 14:55:00
5:51 AM,69.8,68.0,94,29.98,10.0,Calm,Calm,-,N/A,,Overcast,0,2012-10-26 15:51:00
5:55 AM,69.6,68.4,96,29.98,10.0,Calm,Calm,-,N/A,,Overcast,0,2012-10-26 15:55:00
6:55 AM,70.7,69.3,95,30.00,8.0,Calm,Calm,-,N/A,,Overcast,0,2012-10-26 16:55:00
7:02 AM,69.8,69.8,100,30.00,7.0,WNW,3.5,-,N/A,,Overcast,290,2012-10-26 17:02:00
7:06 AM,69.8,69.8,100,30.00,8.0,WNW,3.5,-,N/A,,Overcast,300,2012-10-26 17:06:00
7:55 AM,71.8,70.3,95,30.02,10.0,ENE,3.5,-,N/A,,Mostly Cloudy,60,2012-10-26 17:55:00
8:51 AM,75.2,71.6,89,30.03,10.0,Calm,Calm,-,N/A,,Scattered Clouds,0,2012-10-26 18:51:00
8:55 AM,75.0,72.0,90,30.03,10.0,Calm,Calm,-,N/A,,Scattered Clouds,0,2012-10-26 18:55:00
9:28 AM,77.0,71.6,83,30.04,10.0,Calm,Calm,-,N/A,,Mostly Cloudy,0,2012-10-26 19:28:00
9:39 AM,77.0,69.8,78,30.04,10.0,Variable,3.5,-,N/A,,Mostly Cloudy,0,2012-10-26 19:39:00
9:55 AM,78.4,70.3,76,30.04,10.0,North,3.5,-,N/A,,Overcast,360,2012-10-26 19:55:00
1:35 PM,80.6,69.8,70,29.97,10.0,Variable,5.8,-,N/A,,Light Drizzle,0,2012-10-26 23:35:00
2:08 PM,78.8,69.8,74,29.98,10.0,North,8.1,-,N/A,,Overcast,360,2012-10-27 00:08:00
2:55 PM,80.6,69.8,70,29.96,10.0,ENE,8.1,-,N/A,,Mostly Cloudy,70,2012-10-27 00:55:00
3:55 PM,78.8,69.6,73,29.97,10.0,West,9.2,-,N/A,,Scattered Clouds,280,2012-10-27 01:55:00
4:55 PM,77.0,69.8,78,29.98,10.0,SSE,3.5,-,0.00,,Mostly Cloudy,150,2012-10-27 02:55:00